#timestamp,LO_Frequency,Hit 
1503820815.3,286046998.9,N
1503820835.2,286047001.6,N
1503820855.1,286047001.3,N
1503820856.0,286047001.3,N
1503820875.8,286047004.0,N
1503820895.6,286047003.2,N
1503820915.5,286047006.9,N
1503820935.3,286047003.9,N
1503820955.4,286047000.2,N
1503820975.2,286046999.9,N
1503820995.0,286046998.6,N
1503820995.9,286046998.6,N
1503821015.8,286046998.6,N
1503821035.6,286046998.5,N
1503821055.4,286047002.0,N
1503821075.3,286047004.3,N
1503821095.1,286047005.9,N
1503821096.0,286047005.9,N
1503821115.8,286047004.8,N
1503821135.0,286047006.2,N
1503821135.9,286047006.2,N
1503821155.8,286047011.1,N
1503821175.6,286047012.0,N
1503821195.4,286047013.2,N
1503821215.3,286047012.7,N
1503821235.1,286047015.4,P
1503821255.9,286047013.2,N
1503821275.7,286047014.0,N
1503821295.5,286047013.4,N
1503821315.3,286047012.8,N
1503821335.2,286047013.2,P
1503821355.0,286047001.9,N
1503821355.9,286047001.9,N
1503821375.8,286047002.4,N
1503821395.6,286046998.7,N
1503821415.4,286046998.9,N
1503821435.3,286046999.2,N
1503821455.1,286046999.1,N
1503821456.0,286046999.1,N
1503821475.8,286046997.5,N
1503821495.7,286046999.6,N
1503821515.5,286046998.9,N
1503821535.3,286047001.2,N
1503821555.1,286047001.9,N
1503821575.9,286047001.3,N
1503821595.7,286047003.8,N
1503821615.5,286046998.5,N
1503821635.4,286047001.1,N
1503821655.2,286047004.2,N
1503821675.0,286047001.7,N
1503821675.9,286047001.7,N
1503821695.8,286047002.3,N
1503821715.6,286047000.2,N
1503821735.4,286047000.4,N
1503821755.3,286047000.9,N
1503821775.1,286047002.2,N
1503821776.0,286047002.2,N
1503821795.8,286047004.3,N
1503821815.7,286047003.0,N
1503821835.5,286047005.2,N
1503821855.3,286047009.2,P
1503821875.2,286047008.6,N
1503821895.9,286047007.0,N
1503821915.7,286047006.0,N
1503821935.6,286047007.2,N
1503821955.4,286047008.2,P
1503821975.2,286047007.1,P
1503821995.1,286047007.8,P
1503821996.0,286047007.8,P
1503822015.8,286047000.3,N
1503822035.6,286046998.2,N
1503822055.5,286046998.0,N
1503822075.3,286046998.5,N
1503822095.1,286046998.8,N
1503822115.9,286047003.5,N
1503822135.7,286047007.1,N
1503822155.5,286047003.8,N
1503822175.4,286047002.3,N
1503822195.2,286046999.4,N
1503822215.0,286046999.1,N
1503822215.9,286046999.1,N
1503822235.8,286046998.6,N
1503822255.6,286046999.9,N
1503822275.4,286047002.5,N
1503822295.2,286046998.5,N
1503822315.1,286046998.6,N
1503822316.0,286046998.6,N
1503822335.8,286046996.9,N
1503822355.6,286046998.3,N
1503822375.5,286047001.2,N
1503822395.3,286046998.5,N
1503822415.1,286046999.4,N
1503822435.9,286047002.6,N
1503822455.7,286046999.9,N
1503822475.5,286046998.3,N
1503822495.4,286046997.7,N
1503822515.2,286046995.1,N
1503822535.0,286046995.2,N
1503822535.9,286046995.2,N
1503822555.8,286046997.2,N
1503822575.6,286046997.8,N
1503822595.4,286046993.3,N
1503822615.3,286046994.7,N
1503822635.1,286046992.2,N
1503822636.0,286046992.2,N
1503822655.8,286046992.3,N
1503822675.7,286046992.7,N
1503822695.5,286046990.4,P
1503822715.3,286046994.4,N
1503822735.2,286046995.7,N
1503822755.9,286046993.7,N
1503822775.7,286046995.7,N
1503822795.6,286046995.3,N
1503822815.4,286046994.9,N
1503822835.2,286046996.2,N
1503822855.0,286046994.7,N
1503822855.9,286046994.7,N
1503822875.8,286046996.3,N
1503822895.6,286046991.7,P
1503822915.5,286046997.5,N
1503822935.3,286046993.9,N
1503822955.1,286046991.9,P
1503822975.9,286046998.1,N
1503822995.7,286047001.1,N
1503823015.5,286046998.9,N
1503823035.4,286046998.1,N
1503823055.2,286046999.9,N
1503823075.0,286047001.8,N
1503823075.9,286047001.8,N
1503823095.8,286047002.1,N
1503823115.6,286047002.5,N
1503823135.4,286047001.7,N
1503823155.2,286047001.5,N
1503823175.1,286047003.1,N
1503823176.0,286047003.1,N
1503823195.8,286047003.3,N
1503823215.6,286047002.9,N
1503823235.5,286047004.4,N
1503823255.3,286047001.7,N
1503823275.1,286046999.7,N
1503823295.9,286047000.3,N
1503823315.7,286047000.6,N
1503823335.5,286046996.9,N
1503823355.4,286046999.3,N
1503823375.2,286047000.6,N
1503823395.0,286047000.1,N
1503823395.9,286047000.1,N
1503823415.8,286047000.8,N
1503823435.6,286046998.7,N
1503823455.4,286046999.1,N
1503823475.2,286046999.3,N
1503823495.1,286047000.7,N
1503823496.0,286047000.7,N
1503823515.8,286046999.7,N
1503823535.6,286047000.1,N
1503823555.5,286047000.9,N
1503823575.3,286046998.8,N
1503823595.1,286046996.7,N
1503823615.9,286046997.9,N
1503823635.7,286046996.3,N
1503823655.5,286046998.0,N
1503823675.4,286046997.5,N
1503823695.2,286047000.6,N
1503823715.0,286047000.0,N
1503823715.9,286047000.0,N
1503823735.8,286047000.3,N
1503823755.6,286047002.8,N
1503823775.4,286046998.2,N
1503823795.3,286046999.4,N
1503823815.1,286047000.7,N
1503823816.0,286047000.7,N
1503823835.8,286046998.7,N
1503823855.7,286047000.9,N
1503823875.5,286047002.6,N
1503823895.3,286047004.1,N
1503823915.1,286047002.4,N
1503823935.9,286047000.1,N
1503823955.7,286046999.5,N
1503823975.5,286047000.5,N
1503823995.4,286047001.1,N
1503824015.2,286046998.4,N
1503824035.0,286046998.3,N
1503824035.9,286046998.3,N
1503824055.8,286046996.7,N
1503824075.6,286046997.3,N
1503824095.4,286046998.0,N
1503824115.3,286046994.9,N
1503824135.1,286046996.4,N
1503824136.0,286046996.4,N
1503824155.8,286046994.4,N
1503824175.7,286046994.3,N
1503824195.5,286046991.8,P
1503824215.3,286046996.0,N
1503824235.2,286046996.9,N
1503824255.9,286046999.3,N
1503824275.7,286046997.2,N
1503824295.6,286046997.8,N
1503824315.4,286046997.8,N
1503824335.2,286046997.6,N
1503824355.1,286046998.3,N
1503824375.7,286046996.9,N
1503824395.5,286046997.6,N
